DLH17C EDDL-EDDM

Flight info

Callsign DLH17C
Flight time N/A
Altitude 35000
Route DODEN1T DODEN Y853 BOMBI T104 HAREM/N0407F270 T104 ROKIL ROKIL1B
Aircraft A20N/M-SDE2E3FGHIRWXY/LB1

Departure

Time 2026-05-07 09:24
Airport Düsseldorf Airport (EDDL)

Arrival

Time N/A
Airport Munich Airport (EDDM)
Time Latitude Longitude Altitude Speed Heading
2026-05-07 09:05 51.28206 6.76743 121 ft 0 kts 277°
2026-05-07 09:14 51.28204 6.76769 117 ft 3 kts 277°
2026-05-07 09:14 51.28202 6.76799 117 ft 3 kts 277°
2026-05-07 09:14 51.28199 6.76829 117 ft 3 kts 300°
2026-05-07 09:15 51.28185 6.76851 117 ft 3 kts 342°
2026-05-07 09:15 51.28184 6.76851 117 ft 0 kts 345°
2026-05-07 09:17 51.28192 6.76848 118 ft 5 kts 348°
2026-05-07 09:18 51.28259 6.76848 121 ft 14 kts
2026-05-07 09:18 51.28365 6.76858 120 ft 17 kts 344°
2026-05-07 09:18 51.28465 6.76781 120 ft 13 kts
2026-05-07 09:18 51.28537 6.76872 120 ft 15 kts 51°
2026-05-07 09:19 51.28611 6.77028 120 ft 21 kts 54°
2026-05-07 09:19 51.28708 6.77235 121 ft 26 kts 53°
2026-05-07 09:19 51.28827 6.77482 120 ft 31 kts 52°
2026-05-07 09:19 51.28963 6.77772 121 ft 34 kts 53°
2026-05-07 09:20 51.29116 6.78094 119 ft 38 kts 52°
2026-05-07 09:20 51.29216 6.78298 119 ft 17 kts 51°
2026-05-07 09:20 51.29299 6.78479 118 ft 23 kts 55°
2026-05-07 09:20 51.29417 6.78572 118 ft 16 kts 356°
2026-05-07 09:21 51.29431 6.78571 121 ft 0 kts 355°
2026-05-07 09:22 51.29437 6.78570 121 ft 7 kts 355°
2026-05-07 09:23 51.29508 6.78501 119 ft 15 kts 288°
2026-05-07 09:23 51.29453 6.78329 119 ft 32 kts 233°
2026-05-07 09:23 51.29169 6.77724 120 ft 102 kts 232°
2026-05-07 09:23 51.28616 6.76552 152 ft 157 kts 238°
2026-05-07 09:24 51.28062 6.75043 702 ft 160 kts 246°
2026-05-07 09:24 51.27578 6.73412 1392 ft 165 kts 247°
2026-05-07 09:24 51.27029 6.71764 2145 ft 171 kts 240°
2026-05-07 09:24 51.26296 6.70241 2928 ft 178 kts 229°
2026-05-07 09:25 51.25326 6.68931 3688 ft 188 kts 217°
2026-05-07 09:25 51.24166 6.67682 4103 ft 214 kts 215°
2026-05-07 09:25 51.22907 6.66231 4550 ft 234 kts 220°
2026-05-07 09:25 51.21625 6.64441 5055 ft 254 kts 224°
2026-05-07 09:26 51.20246 6.62632 5861 ft 262 kts 213°
2026-05-07 09:26 51.18525 6.61516 6571 ft 274 kts 191°
2026-05-07 09:26 51.16613 6.61560 7024 ft 278 kts 165°
2026-05-07 09:26 51.14936 6.63000 7316 ft 278 kts 135°
2026-05-07 09:27 51.13768 6.65451 7250 ft 279 kts 118°
2026-05-07 09:27 51.13091 6.68193 7231 ft 278 kts 101°
2026-05-07 09:27 51.13098 6.74407 8874 ft 281 kts 83°
2026-05-07 09:28 51.13269 6.77500 9885 ft 283 kts 84°
2026-05-07 09:28 51.13427 6.80655 10580 ft 296 kts 85°
2026-05-07 09:28 51.13581 6.84092 10942 ft 321 kts 85°
2026-05-07 09:28 51.13730 6.87723 11348 ft 341 kts 85°
2026-05-07 09:29 51.13878 6.91595 12011 ft 352 kts 85°
2026-05-07 09:29 51.14024 6.95499 12826 ft 359 kts 86°
2026-05-07 09:29 51.14169 6.99473 13677 ft 364 kts 86°
2026-05-07 09:29 51.14316 7.03563 14460 ft 369 kts 86°
2026-05-07 09:30 51.14461 7.07637 15247 ft 373 kts 86°
2026-05-07 09:30 51.14608 7.11818 16044 ft 377 kts 86°
2026-05-07 09:30 51.14753 7.15989 16811 ft 381 kts 86°
2026-05-07 09:30 51.14898 7.20187 17558 ft 385 kts 86°
2026-05-07 09:31 51.15045 7.24497 18308 ft 389 kts 86°
2026-05-07 09:31 51.15192 7.28843 18953 ft 393 kts 86°
2026-05-07 09:31 51.15336 7.33171 19576 ft 397 kts 86°
2026-05-07 09:31 51.15373 7.37610 20222 ft 401 kts 92°
2026-05-07 09:32 51.14941 7.41975 20840 ft 406 kts 105°
2026-05-07 09:32 51.13880 7.46189 21482 ft 409 kts 118°
2026-05-07 09:32 51.12236 7.49893 22091 ft 413 kts 131°
2026-05-07 09:32 51.10236 7.53153 22675 ft 416 kts 136°
2026-05-07 09:33 51.08119 7.56355 23247 ft 420 kts 136°
2026-05-07 09:33 51.05975 7.59571 23778 ft 423 kts 136°
2026-05-07 09:33 51.03823 7.62811 24246 ft 426 kts 136°
2026-05-07 09:33 51.01687 7.66038 24714 ft 428 kts 136°
2026-05-07 09:34 50.99515 7.69325 25165 ft 431 kts 136°
2026-05-07 09:34 50.97331 7.72548 25618 ft 433 kts 139°
2026-05-07 09:34 50.94879 7.75405 26060 ft 436 kts 146°
2026-05-07 09:34 50.92318 7.77988 26495 ft 438 kts 148°
2026-05-07 09:35 50.89734 7.80521 26897 ft 441 kts 148°
2026-05-07 09:35 50.87102 7.83092 27299 ft 443 kts 148°
2026-05-07 09:35 50.84487 7.85650 27666 ft 446 kts 148°
2026-05-07 09:35 50.81825 7.88255 28063 ft 449 kts 148°
2026-05-07 09:36 50.79181 7.90842 28453 ft 451 kts 148°
2026-05-07 09:36 50.76493 7.93471 28843 ft 453 kts 148°
2026-05-07 09:36 50.73830 7.96073 29222 ft 455 kts 148°
2026-05-07 09:36 50.71111 7.98727 29582 ft 457 kts 148°
2026-05-07 09:37 50.68390 8.01380 29988 ft 458 kts 148°
2026-05-07 09:37 50.65705 8.03993 30422 ft 457 kts 148°
2026-05-07 09:37 50.62987 8.06632 30834 ft 456 kts 149°
2026-05-07 09:37 50.60169 8.08833 31197 ft 455 kts 159°
2026-05-07 09:38 50.57291 8.10885 31546 ft 455 kts 147°
2026-05-07 09:38 50.54797 8.13992 31880 ft 456 kts 137°
2026-05-07 09:38 50.52541 8.17532 32217 ft 456 kts 134°
2026-05-07 09:38 50.50352 8.21111 32597 ft 455 kts 135°
2026-05-07 09:39 50.48121 8.24615 32963 ft 455 kts 136°
2026-05-07 09:39 50.45806 8.28025 33298 ft 454 kts 138°
2026-05-07 09:39 50.43448 8.31304 33639 ft 454 kts 140°
2026-05-07 09:39 50.41057 8.34498 33973 ft 453 kts 141°
2026-05-07 09:40 50.38648 8.37640 34251 ft 453 kts 141°
2026-05-07 09:40 50.36197 8.40802 34522 ft 453 kts 141°
2026-05-07 09:40 50.33767 8.43926 34784 ft 452 kts 141°
2026-05-07 09:40 50.31402 8.46966 34981 ft 454 kts 141°
2026-05-07 09:41 50.28901 8.50185 35012 ft 452 kts 141°
2026-05-07 09:41 50.24071 8.56410 35015 ft 450 kts 141°
2026-05-07 09:42 50.19259 8.62607 35020 ft 449 kts 141°
2026-05-07 09:42 50.14442 8.68794 35018 ft 449 kts 142°
2026-05-07 09:43 50.09629 8.74958 35018 ft 449 kts 142°
2026-05-07 09:43 50.04832 8.81150 35014 ft 450 kts 140°
2026-05-07 09:44 50.00156 8.87672 35012 ft 450 kts 139°
2026-05-07 09:44 49.95565 8.94244 35011 ft 450 kts 139°
2026-05-07 09:45 49.90965 9.00785 35005 ft 449 kts 139°
2026-05-07 09:45 49.86336 9.07305 35002 ft 449 kts 139°
2026-05-07 09:46 49.81703 9.13796 35005 ft 450 kts 139°
2026-05-07 09:46 49.77062 9.20279 35001 ft 450 kts 139°
2026-05-07 09:47 49.72426 9.26738 35001 ft 450 kts 139°
2026-05-07 09:47 49.67765 9.33217 35001 ft 450 kts 139°
2026-05-07 09:48 49.63125 9.39658 35001 ft 450 kts 138°
2026-05-07 09:48 49.58842 9.46679 34998 ft 451 kts 133°
2026-05-07 09:49 49.54694 9.53909 35000 ft 451 kts 133°
2026-05-07 09:49 49.50569 9.61173 34997 ft 451 kts 133°
2026-05-07 09:50 49.46415 9.68455 34996 ft 451 kts 133°
2026-05-07 09:50 49.42263 9.75693 34995 ft 451 kts 133°
2026-05-07 09:51 49.38113 9.82897 34992 ft 451 kts 133°
2026-05-07 09:51 49.33945 9.90099 34992 ft 451 kts 133°
2026-05-07 09:52 49.29797 9.97243 34991 ft 452 kts 133°
2026-05-07 09:52 49.25593 10.04463 34995 ft 451 kts 134°
2026-05-07 09:53 49.21425 10.11605 34998 ft 451 kts 134°
2026-05-07 09:53 49.17239 10.18761 35014 ft 451 kts 134°
2026-05-07 09:54 49.13059 10.25835 35022 ft 451 kts 135°
2026-05-07 09:54 49.08753 10.32807 35026 ft 450 kts 136°
2026-05-07 09:55 49.04427 10.39711 34762 ft 447 kts 136°
2026-05-07 09:55 49.02293 10.43115 34167 ft 448 kts 136°
2026-05-07 09:55 49.00148 10.46537 33440 ft 448 kts 135°
2026-05-07 09:55 48.97975 10.49998 32596 ft 451 kts 135°
2026-05-07 09:56 48.95814 10.53438 31754 ft 455 kts 135°
2026-05-07 09:56 48.93631 10.56908 31329 ft 449 kts 134°
2026-05-07 09:56 48.91485 10.60324 31103 ft 438 kts 134°
2026-05-07 09:56 48.89414 10.63616 30703 ft 432 kts 134°
2026-05-07 09:57 48.87313 10.66950 29925 ft 435 kts 134°
2026-05-07 09:57 48.85225 10.70261 28934 ft 441 kts 134°
2026-05-07 09:57 48.83083 10.73652 27966 ft 446 kts 134°
2026-05-07 09:57 48.80936 10.77046 27037 ft 450 kts 135°
2026-05-07 09:58 48.78750 10.80488 26142 ft 455 kts 135°
2026-05-07 09:58 48.76535 10.83965 25422 ft 455 kts 135°
2026-05-07 09:58 48.74335 10.87415 24745 ft 451 kts 135°
2026-05-07 09:58 48.72195 10.90766 24079 ft 439 kts 135°
2026-05-07 09:59 48.70099 10.94045 23398 ft 426 kts 135°
2026-05-07 09:59 48.68075 10.97206 22645 ft 414 kts 135°
2026-05-07 09:59 48.66077 11.00319 21903 ft 403 kts 136°
2026-05-07 09:59 48.64159 11.03303 21165 ft 394 kts 136°
2026-05-07 10:00 48.62257 11.06258 20302 ft 389 kts 136°
2026-05-07 10:00 48.60376 11.09174 19450 ft 384 kts 136°
2026-05-07 10:00 48.58488 11.11940 18726 ft 376 kts 142°
2026-05-07 10:00 48.56481 11.14281 18638 ft 349 kts 147°
2026-05-07 10:01 48.54567 11.16320 18509 ft 335 kts 148°
2026-05-07 10:01 48.52658 11.18300 18255 ft 327 kts 148°
2026-05-07 10:01 48.50869 11.20333 17855 ft 324 kts 143°
2026-05-07 10:01 48.49151 11.22571 17134 ft 331 kts 141°
2026-05-07 10:02 48.47414 11.24915 16380 ft 338 kts 141°
2026-05-07 10:02 48.45638 11.27333 15639 ft 344 kts 140°
2026-05-07 10:02 48.44010 11.29983 14926 ft 352 kts 130°
2026-05-07 10:02 48.42801 11.33021 14248 ft 359 kts 116°
2026-05-07 10:03 48.42063 11.36630 13520 ft 366 kts 101°
2026-05-07 10:03 48.41939 11.40457 12753 ft 372 kts 88°
2026-05-07 10:03 48.42194 11.44376 11983 ft 374 kts 84°
2026-05-07 10:03 48.42522 11.48243 11256 ft 376 kts 83°
2026-05-07 10:04 48.42857 11.52161 10560 ft 375 kts 83°
2026-05-07 10:04 48.43176 11.55998 10141 ft 363 kts 83°
2026-05-07 10:04 48.43474 11.59666 9926 ft 339 kts 83°
2026-05-07 10:04 48.43745 11.63059 9623 ft 319 kts 84°
2026-05-07 10:05 48.44001 11.66312 9339 ft 302 kts 84°
2026-05-07 10:05 48.44239 11.69351 9088 ft 286 kts 84°
2026-05-07 10:05 48.44391 11.71300 8935 ft 277 kts 84°
2026-05-07 10:05 48.44679 11.75014 8625 ft 260 kts 84°
2026-05-07 10:06 48.44816 11.76801 8406 ft 255 kts 84°
2026-05-07 10:06 48.45020 11.79445 8058 ft 252 kts 84°
2026-05-07 10:06 48.45216 11.82030 7700 ft 251 kts 86°
2026-05-07 10:06 48.45359 11.84702 7710 ft 255 kts 89°
2026-05-07 10:07 48.45480 11.87364 7819 ft 259 kts 89°
2026-05-07 10:07 48.45630 11.90109 7882 ft 263 kts 87°
2026-05-07 10:07 48.45806 11.92866 7863 ft 269 kts 87°
2026-05-07 10:07 48.46003 11.95768 7561 ft 287 kts 86°
2026-05-07 10:08 48.46221 11.98856 6990 ft 311 kts 86°
2026-05-07 10:08 48.46463 12.02202 6341 ft 335 kts 85°
2026-05-07 10:08 48.46725 12.05793 5796 ft 349 kts 85°
2026-05-07 10:08 48.46996 12.09459 5790 ft 351 kts 85°
2026-05-07 10:09 48.47263 12.13115 5792 ft 358 kts 85°
2026-05-07 10:09 48.47540 12.16908 5786 ft 363 kts 85°
2026-05-07 10:09 48.47817 12.20678 5794 ft 366 kts 85°
2026-05-07 10:09 48.48096 12.24482 5814 ft 368 kts 85°
2026-05-07 10:10 48.48250 12.28359 5870 ft 369 kts 97°
2026-05-07 10:10 48.47512 12.31995 5936 ft 363 kts 123°
2026-05-07 10:10 48.45868 12.34756 5888 ft 348 kts 149°
2026-05-07 10:10 48.43709 12.36064 5850 ft 333 kts 176°
2026-05-07 10:11 48.41471 12.35738 5826 ft 319 kts 204°
2026-05-07 10:11 48.39687 12.33926 5804 ft 309 kts 230°
2026-05-07 10:11 48.38366 12.31401 5782 ft 305 kts 237°
2026-05-07 10:11 48.37145 12.28783 5800 ft 303 kts 240°
2026-05-07 10:12 48.36532 12.25832 5876 ft 299 kts 267°
2026-05-07 10:12 48.36791 12.22748 5895 ft 297 kts 285°
2026-05-07 10:12 48.37338 12.19873 6824 ft 265 kts 284°
2026-05-07 10:12 48.37792 12.17643 8616 ft 177 kts 284°
2026-05-07 10:13 48.38086 12.16250 9287 ft 123 kts 279°
2026-05-07 10:13 48.38302 12.14936 9827 ft 119 kts 278°
2026-05-07 10:13 48.38537 12.13871 10596 ft 106 kts 287°
2026-05-07 10:13 48.39030 12.12791 10740 ft 146 kts 310°
2026-05-07 10:14 48.39848 12.11615 10680 ft 188 kts 295°
2026-05-07 10:14 48.40010 12.09455 10208 ft 237 kts 253°
2026-05-07 10:14 48.39352 12.06975 10040 ft 271 kts 246°
2026-05-07 10:14 48.38583 12.04248 9999 ft 293 kts 248°
2026-05-07 10:15 48.37957 12.01234 9993 ft 308 kts 256°
2026-05-07 10:15 48.37631 11.98022 9997 ft 319 kts 262°
2026-05-07 10:15 48.37097 11.94733 9901 ft 328 kts 247°
2026-05-07 10:15 48.35819 11.91888 9285 ft 341 kts 227°
2026-05-07 10:16 48.33849 11.89783 8374 ft 344 kts 209°
2026-05-07 10:16 48.31719 11.88389 7573 ft 329 kts 204°
2026-05-07 10:16 48.29530 11.87643 7119 ft 317 kts 185°
2026-05-07 10:16 48.27453 11.88265 6977 ft 292 kts 160°
2026-05-07 10:17 48.25968 11.89981 6979 ft 261 kts 132°
2026-05-07 10:17 48.25237 11.92465 6992 ft 267 kts 103°
2026-05-07 10:17 48.25181 11.95253 7180 ft 255 kts 88°
2026-05-07 10:17 48.25288 11.97628 7615 ft 208 kts 87°
2026-05-07 10:18 48.25398 11.99679 7468 ft 186 kts 87°
2026-05-07 10:18 48.25503 12.01538 7179 ft 176 kts 87°
2026-05-07 10:18 48.25604 12.03341 6818 ft 172 kts 87°
2026-05-07 10:18 48.25705 12.05124 6442 ft 170 kts 87°
2026-05-07 10:19 48.25806 12.06893 6024 ft 169 kts 87°
2026-05-07 10:19 48.25895 12.08624 5663 ft 165 kts 86°
2026-05-07 10:19 48.25982 12.10309 5367 ft 159 kts 87°
2026-05-07 10:19 48.26067 12.11950 5054 ft 154 kts 87°
2026-05-07 10:20 48.26155 12.13669 5065 ft 182 kts 87°
2026-05-07 10:20 48.26245 12.15657 5037 ft 196 kts 87°
2026-05-07 10:20 48.26339 12.17740 4989 ft 202 kts 88°
2026-05-07 10:20 48.26439 12.19852 4982 ft 205 kts 87°
2026-05-07 10:21 48.26533 12.21998 4977 ft 206 kts 87°
2026-05-07 10:21 48.26631 12.24153 4975 ft 207 kts 86°
2026-05-07 10:21 48.27106 12.26141 4972 ft 206 kts 51°
2026-05-07 10:21 48.28235 12.27394 4979 ft 200 kts 21°
2026-05-07 10:22 48.29540 12.28076 4975 ft 197 kts
2026-05-07 10:22 48.30832 12.27797 4980 ft 188 kts 329°
2026-05-07 10:22 48.31892 12.26690 4984 ft 184 kts 316°
2026-05-07 10:22 48.32867 12.25424 4977 ft 184 kts 314°
2026-05-07 10:23 48.33824 12.24147 4967 ft 185 kts 314°
2026-05-07 10:23 48.34793 12.22851 4982 ft 185 kts 314°
2026-05-07 10:23 48.35747 12.21580 4981 ft 185 kts 314°
2026-05-07 10:23 48.36601 12.20153 4979 ft 180 kts 292°
2026-05-07 10:24 48.36822 12.18486 4949 ft 150 kts 269°
2026-05-07 10:24 48.36799 12.17021 4967 ft 133 kts 265°
2026-05-07 10:24 48.36742 12.15652 4985 ft 132 kts 264°
2026-05-07 10:24 48.36691 12.14266 4984 ft 132 kts 266°
2026-05-07 10:25 48.36672 12.12900 4983 ft 132 kts 267°
2026-05-07 10:25 48.36660 12.11519 4980 ft 132 kts 268°
2026-05-07 10:25 48.36673 12.10137 4982 ft 132 kts 269°
2026-05-07 10:25 48.36697 12.08754 4994 ft 132 kts 269°
2026-05-07 10:26 48.36840 12.07405 4977 ft 134 kts 286°
2026-05-07 10:26 48.37234 12.06131 4987 ft 133 kts 293°
2026-05-07 10:26 48.37665 12.04918 4995 ft 131 kts 288°
2026-05-07 10:26 48.37884 12.03598 4987 ft 130 kts 273°
2026-05-07 10:27 48.37906 12.02235 5010 ft 130 kts 265°